Orbital Elements at Epoch 2459200.5 (2020-Dec-17.0) TDB
Reference: JPL 16 (heliocentric ecliptic J2000)
Element | Value | Uncertainty (1-sigma) | Units |
e | .06423678883402267 | 3.6401e-08 | |
a | 1.957169335753227 | 7.5578e-09 | au |
q | 1.831447062420022 | 7.2879e-08 | au |
i | 19.95482871940997 | 5.5048e-06 | deg |
node | 222.7254647182017 | 1.1683e-05 | deg |
peri | 98.37548054905956 | 4.6296e-05 | deg |
M | 298.739655754158 | 4.681e-05 | deg |
tp | 2459370.683700661696 (2021-Jun-05.18370066) | 0.00013047 | TDB |
period | 1000.094481877958 2.74 | 5.7929e-06 1.586e-08 | d yr |
n | .3599659897372888 | 2.0851e-09 | deg/d |
Q | 2.082891609086432 | 8.0433e-09 | au |
|
| | Orbit Determination Parameters
Additional Information
|